Current Weather Conditions: station 63057

sailwx.info

Wind from 160 at 12 knots

Wave height 1.7 meters (5 feet), 6 second period

Air temperature 3.8° C
Visibility: greater than 10.8 NM
Dewpoint -0.2° C

Last reported at 2018-Feb-25 12:00 UTC.
Time now 2018-Feb-25 13:14 UTC

Location: N 59°12' E 001°30'.
View on Google Maps.

See reports from other nearby stations

  
Tides and Currents Weather Stations Pressure Air Temp Water Temp Dewpoint Dewpoint Depression Visibility Wind Speed Wind Dir Waves Ship Positions
date/time (UTC)wind fromknots sea level pressurealtimeterstation pressurevisibilityair tempwater tempwave heightnotes
2018-Feb-25 12:00 160 12 10.8 3.8 1.7
2018-Feb-25 11:00 150 15 10.8 4.3 1.6
2018-Feb-25 10:00 170 9 10.8 4.2 1.7
2018-Feb-25 09:00 160 13 10.8 4.1 1.7
2018-Feb-25 08:00 140 15 5.4 3.8 1.8
2018-Feb-25 07:00 150 11 5.4 3.9 1.9
2018-Feb-25 06:00 160 9 10.8 3.8 2.0
2018-Feb-25 05:00 160 11 10.8 4.2 1.9
2018-Feb-25 04:00 170 12 10.8 3.7 2.0
2018-Feb-25 03:00 170 12 10.8 4.0 2.0
2018-Feb-25 02:00 180 13 10.8 4.0 2.1
2018-Feb-25 01:00 180 14 10.8 4.3 2.2
2018-Feb-25 00:00 170 13 10.8 4.2 2.4
2018-Feb-24 23:00 170 13 10.8 3.9 2.3
2018-Feb-24 22:00 170 13 10.8 4.0 2.6
2018-Feb-24 21:00 170 13 10.8 4.3 2.7
2018-Feb-24 20:00 170 13 10.8 4.4 2.6
2018-Feb-24 19:00 170 14 10.8 3.9 2.6
2018-Feb-24 18:00 170 17 5.4 4.5 2.6
2018-Feb-24 17:00 180 19 10.8 4.7 3.0
2018-Feb-24 16:00 180 19 10.8 5.0 2.6
2018-Feb-24 15:00 180 20 10.8 5.1 2.8
2018-Feb-24 14:00 180 20 10.8 5.2 2.7
2018-Feb-24 13:00 180 20 10.8 5.1 2.7
2018-Feb-24 12:00 180 19 10.8 5.1 2.5
2018-Feb-24 11:00 180 22 10.8 5.0 2.5
2018-Feb-24 10:00 180 21 10.8 5.0 2.4
2018-Feb-24 09:00 170 21 10.8 5.0 2.3
2018-Feb-24 08:00 170 20 10.8 4.8 2.4
2018-Feb-24 07:00 170 20 10.8 4.7 2.3
2018-Feb-24 06:00 170 20 10.8 4.7 2.1
2018-Feb-24 05:00 170 19 10.8 4.8 2.2
2018-Feb-24 04:00 180 20 10.8 4.9 1.9
2018-Feb-24 03:00 180 21 10.8 5.0 1.8
2018-Feb-24 02:00 170 17 10.8 5.0 1.8
2018-Feb-24 01:00
2018-Feb-24 00:00
2018-Feb-23 23:00 180 15 10.8 5.4 1.8
2018-Feb-23 22:00 180 15 10.8 5.4 1.8
2018-Feb-23 21:00 190 19 10.8 5.5 1.8
2018-Feb-23 20:00 180 15 10.8 5.5 1.9
2018-Feb-23 19:00 190 15 10.8 5.6 1.9
2018-Feb-23 18:00 190 14 10.8 5.5 2.2
2018-Feb-23 17:00 200 13 5.4 5.4 2.0
2018-Feb-23 16:00 200 17 10.8 5.4 2.1
2018-Feb-23 15:00 190 19 10.8 5.3 2.1
2018-Feb-23 14:00 190 19 10.8 5.4 2.1
2018-Feb-23 13:00 200 21 10.8 5.3 2.0